Location: Peterborough
(44.3091°N, 78.3197°W)
Time: 13:22:03
(UTC-04:00)

Transit 2A Rocket - Pass Details

Date: 24 March 2023
Orbit: 584 x 914 km, 66.7° (Epoch: 02 June)

Event Time Altitude Azimuth Distance (km) Brightness Sun altitude
Rises 20:20:13 0° 331° (NNW) 3,552 9.1 -9.6°
Reaches altitude 10° 20:23:00 10° 340° (NNW) 2,613 8.2 -10.1°
Maximum altitude 20:28:35 36° 46° (NE) 1,407 6.1 -11.1°
Enters shadow 20:32:50 16° 106° (ESE) 2,164 6.6 -11.8°
